Regional Weather Roundup
Issued by NWS Sioux Falls, SD

Home | Current Version | Previous Version | Text Only | Print | Product List | Glossary Off
Versions: 1 2 3 4 5 6 7 8 9 10 11 12 13 14 15 16 17 18 19 20 21 22 23 24 25 26 27 28 29 30 31 32 33 34 35 36 37 38 39 40 41 42 43 44 45 46 47 48 49 50

000
ASUS43 KFSD 291710
RWRFSD

WEATHER ROUNDUP FOR SE SOUTH DAKOTA/SW MINNESOTA/NW IOWA
NATIONAL WEATHER SERVICE SIOUX FALLS SD
1200 PM CDT SAT APR 29 2017

NOTE: "FAIR" INDICATES FEW OR NO CLOUDS BELOW 12,000 FEET WITH NO
SIGNIFICANT WEATHER AND OR OBSTRUCTIONS TO VISIBILITY.


SDZ038>040-050-052>070-291800-
SOUTHEAST SOUTH DAKOTA

CITY           SKY/WX    TMP DP  RH WIND       PRES   REMARKS
BROOKINGS      CLOUDY    47  18  31 NE10      30.27R
CHAMBERLAIN    CLOUDY    52  20  28 N10       30.26F
HURON          MOSUNNY   51  21  30 VRB5      30.30R
MADISON        FAIR      48  18  29 NE17      30.25S
MITCHELL       CLOUDY    52  23  32 N15G22    30.26F
SIOUX FALLS    CLOUDY    50  31  48 NE16      30.23S
WINNER         FAIR      51  20  29 NE15G22   30.25F
YANKTON        CLOUDY    48  28  46 NE20      30.18F
$$

MNZ071-072-080-081-089-090-097-098-291800-
SOUTHWEST MINNESOTA

CITY           SKY/WX    TMP DP  RH WIND       PRES   REMARKS
FAIRMONT       CLOUDY    45  28  51 NE21      30.22F
JACKSON        PTSUNNY   45  30  57 NE16      30.22S
LUVERNE        CLOUDY    45  28  53 NE14G22   30.23R
MARSHALL       CLOUDY    48  23  37 E12G18    30.29R
MONTEVIDEO     MOSUNNY   52  25  35 E9        30.30R
PIPESTONE      CLOUDY    48  16  27 E15G23    30.23R
REDWOOD FALLS  MOSUNNY   49  22  34 NE9       30.28R
TRACY          CLOUDY    49  27  43 E13G20    30.27R
WINDOM         CLOUDY    46  23  39 NE15G24   30.24R
WORTHINGTON    PTSUNNY   44  29  55 NE18      30.22R
$$

IAZ001>003-012>014-020>022-031-032-NEZ013-014-SDZ071-291800-
NORTHWEST IOWA

CITY           SKY/WX    TMP DP  RH WIND       PRES   REMARKS
CHEROKEE       CLOUDY    46  33  59 NE15G25   30.16S
DENISON        PTSUNNY   45  36  70 NE26G33   30.13S
ESTHERVILLE    PTSUNNY   44  32  62 NE22      30.20S
LE MARS        CLOUDY    48  32  53 NE15G22   30.18F
ORANGE CITY    PTSUNNY   46  34  61 E13G18    30.18S
SHELDON        PTSUNNY   46  32  57 NE21      30.17S
SIOUX CITY     CLOUDY    49  32  52 E17G24    30.17R
SPENCER        CLOUDY    46  33  60 NE20      30.19R
STORM LAKE       N/A     45  34  65 NE21G28   30.15R
$$

ABBREVIATIONS USED IN REMARKS
   TC - TEMPERATURE IN CELSIUS
  WCI - WIND CHILL INDEX
   HX - HEAT INDEX
  VSB - VISIBILITY




USA.gov is the U.S. government's official web portal to all federal, state and local government web resources and services.